Location: Le Sartre
(44.8050°N, 2.2123°E)
Time: 11:54:33
(UTC+00:00)

CZ-4B R/B - Pass Details

Date: 15 May 2026
Orbit: 442 x 558 km, 97.8° (Epoch: 6 June)

Event Time Altitude Azimuth Distance (km) Brightness Sun altitude
Exits shadow 20:50:03 28° 120° (ESE) 885 3.3 -14.5°
Maximum altitude 20:51:19 40° 72° (ENE) 684 3.1 -14.6°
Drops below altitude 10° 20:54:35 10° 1° (N) 1,624 5.9 -15.0°
Sets 20:56:44 0° 354° (N) 2,524 7.1 -15.3°
